User: anonymous   Login
Location: Carrières
(48.9495°N, 2.0407°E)
Time: 15:52:51
(UTC+00:00)
Language:

RESURS P4 - Orbit

View from above orbital plane
View from above orbital plane
View from above satellite
View from above satellite

Ground track
Ground track

The orbit data is extracted from the following two-line orbital elements,

1 59371U 24061A   24194.51852530  .00005695  00000-0  18059-3 0  9998
2 59371  97.1868 146.8750 0002644  77.9154 282.2385 15.33079458 15805
Epoch (UTC): 12 July 2024 12:26:40
Eccentricity: 0.0002644
inclination: 97.1868°
perigee height: 465 km
apogee height: 468 km
right ascension of ascending node: 146.8750°
argument of perigee: 77.9154°
revolutions per day: 15.33079458
mean anomaly at epoch: 282.2385°
orbit number at epoch: 1580

The dashed part of the orbit path shows where the satellite is in the earth's shadow,  

DLR